Location: Newark
(7.0858°N, 171.3717°E)
Time: 09:07:26
(UTC+00:00)

S-56A Canister/Altair - Pass Details

Date: 04 December 2020
Orbit: 633 x 2499 km, 38.9° (Epoch: 27 January)

Event Time Altitude Azimuth Distance (km) Brightness Sun altitude
Rises 13:12:12 0° 323° (NW) 3,683 - -71.0°
Reaches altitude 10° 13:15:26 10° 333° (NNW) 2,485 - -70.5°
Maximum altitude 13:20:18 31° 34° (NE) 1,241 - -69.7°
Drops below altitude 10° 13:24:20 10° 98° (E) 2,036 - -69.1°
Sets 13:26:43 0° 109° (ESE) 2,910 - -68.7°
